This is the latest recevied weather packets stored in our database for station/object VA3WWD-2. If no packets are shown the sender has not sent any weather packets the latest 10 day(s).
| Time | Temp. | Humidity | Pressure | Rain* | Wind** | Luminosity | Snow |
|---|---|---|---|---|---|---|---|
| 1777925164 | 21.11° C | 14% | - | 0 mm | 0 m/s | - | - |
| 1777924863 | 21.67° C | 12% | - | 0 mm | 0 m/s | - | - |
| 1777924565 | 21.67° C | 10% | - | 0 mm | 0 m/s | - | - |
| 1777924267 | 21.11° C | 14% | - | 0 mm | 0 m/s | - | - |
| 1777923966 | 20.56° C | 16% | - | 0 mm | 0 m/s | - | - |
| 1777923668 | 20.56° C | 15% | - | 0 mm | 0 m/s | - | - |
| 1777923371 | 20.56° C | 16% | - | 0 mm | 0 m/s | - | - |
| 1777923070 | 20.56° C | 15% | - | 0 mm | 0 m/s | - | - |
| 1777922772 | 20.56° C | 17% | - | 0 mm | 0 m/s | - | - |
| 1777922474 | 20.56° C | 18% | - | 0 mm | 0 m/s | - | - |
| 1777922173 | 21.67° C | 16% | - | 0 mm | 0 m/s | - | - |
| 1777921875 | 21.11° C | 16% | - | 0 mm | 0 m/s | - | - |
| 1777921577 | 20.56° C | 17% | - | 0 mm | 0 m/s | - | - |
| 1777921276 | 20.56° C | 23% | - | 0 mm | 0 m/s | - | - |
| 1777920978 | 20.56° C | 22% | - | 0 mm | 0 m/s | - | - |
| 1777920680 | 20.56° C | 20% | - | 0 mm | 0 m/s | - | - |
| 1777920379 | 19.44° C | 20% | - | 0 mm | 0 m/s | - | - |
| 1777920081 | 20.56° C | 19% | - | 0 mm | 0 m/s | - | - |
| 1777919783 | 21.11° C | 20% | - | 0 mm | 0 m/s | - | - |
| 1777919184 | 20.56° C | 21% | - | 0 mm | 0 m/s | - | - |
| 1777918886 | 20° C | 24% | - | 0 mm | 0 m/s | - | - |
| 1777918585 | 20.56° C | 23% | - | 0 mm | 0 m/s | - | - |
| 1777918287 | 20° C | 26% | - | 0 mm | 0 m/s | - | - |
| 1777917989 | 20° C | 26% | - | 0 mm | 0 m/s | - | - |
| 1777917390 | 20° C | 27% | - | 0 mm | 0 m/s | - | - |
* Rain latest hour (hover to see other rain measurements)
** Current wind speed in m/s (hover to see current wind gust speed)